Location: Newark
(44.6028°N, 124.0883°W)
Time: 17:19:44
(UTC+00:00)

Explorer 11/Cluster Stage 4 - All Passes

Search period start: 22 October 2019 00:00
Search period end: 01 November 2019 00:00
Orbit: 467 x 1259 km, 28.8° (Epoch: 21 October)

Date Brightness Start Highest point End Pass type
(mag) Time Alt. Az. Time Alt. Az. Time Alt. Az.
29 Oct - 13:51:03 10° S 13:51:36 10° S 13:52:07 10° S visible
30 Oct - 13:39:01 10° SSW 13:40:53 12° S 13:42:38 10° SSE visible
31 Oct - 13:27:34 10° SSW 13:30:09 13° S 13:32:32 10° SSE visible
